• In Austria
  • List of Countries
  • For 7 days
  • Water Temperature
  • Satellite Maps
  • Weather Map
  • News
  • Weather Widgets
  • user-avatar
    Login

    Hourly Weather Soma

    Today, 23 October, Tuesday

    Time Temperature Precipitation Wind Pressure Humidity
    00:00 +15°C° 0 mm 2 mps 744 mmHg 88%
    01:00 +15°C° 0 mm 2 mps 744 mmHg 88%
    02:00 +15°C° 0 mm 2 mps 743 mmHg 90%
    03:00 +15°C° 0 mm 2 mps 743 mmHg 90%
    04:00 +15°C° 0 mm 2 mps 743 mmHg 90%
    05:00 +15°C° 0 mm 2 mps 743 mmHg 90%
    06:00 +15°C° 0 mm 2 mps 743 mmHg 87%
    07:00 +16°C° 0 mm 2 mps 743 mmHg 84%
    08:00 +16°C° 0 mm 2 mps 744 mmHg 81%
    09:00 +17°C° 0.3 mm 2 mps 743 mmHg 76%
    10:00 +18°C° 0.3 mm 2 mps 743 mmHg 72%
    11:00 +19°C° 0.3 mm 3 mps 743 mmHg 68%
    12:00 +20°C° 0.2 mm 3 mps 743 mmHg 66%
    13:00 +20°C° 0.2 mm 3 mps 743 mmHg 64%
    14:00 +21°C° 0.2 mm 3 mps 742 mmHg 62%
    15:00 +20°C° 0 mm 3 mps 742 mmHg 66%
    16:00 +19°C° 0 mm 3 mps 742 mmHg 70%
    17:00 +19°C° 0 mm 3 mps 741 mmHg 74%
    18:00 +18°C° 0.1 mm 2 mps 741 mmHg 78%
    19:00 +17°C° 0.1 mm 2 mps 741 mmHg 83%
    20:00 +16°C° 0.1 mm 2 mps 741 mmHg 87%
    21:00 +16°C° 0.1 mm 2 mps 741 mmHg 87%
    22:00 +16°C° 0.1 mm 1 mps 741 mmHg 88%
    23:00 +16°C° 0.1 mm 1 mps 740 mmHg 88%

    Tomorrow, 24 October, Wednesday

    Time Temperature Precipitation Wind Pressure Humidity
    00:00 +16°C° 0.1 mm 1 mps 740 mmHg 89%
    01:00 +16°C° 0.1 mm 1 mps 740 mmHg 89%
    02:00 +16°C° 0.1 mm 1 mps 740 mmHg 89%
    03:00 +16°C° 0 mm 1 mps 739 mmHg 89%
    04:00 +16°C° 0 mm 1 mps 739 mmHg 88%
    05:00 +15°C° 0 mm 0 mps 739 mmHg 88%
    06:00 +15°C° 0 mm 0 mps 739 mmHg 86%
    07:00 +15°C° 0 mm 0 mps 739 mmHg 85%
    08:00 +15°C° 0 mm 0 mps 739 mmHg 84%
    09:00 +19°C° 0 mm 1 mps 738 mmHg 77%
    10:00 +20°C° 0 mm 1 mps 738 mmHg 69%
    11:00 +21°C° 0 mm 1 mps 738 mmHg 62%
    12:00 +21°C° 0.1 mm 2 mps 737 mmHg 61%
    13:00 +21°C° 0.1 mm 3 mps 737 mmHg 61%
    14:00 +21°C° 0.1 mm 4 mps 736 mmHg 60%
    15:00 +20°C° 0.1 mm 3 mps 736 mmHg 62%
    16:00 +20°C° 0.1 mm 3 mps 736 mmHg 65%
    17:00 +19°C° 0.1 mm 3 mps 735 mmHg 67%
    18:00 +18°C° 0 mm 3 mps 736 mmHg 72%
    19:00 +17°C° 0 mm 2 mps 736 mmHg 77%
    20:00 +15°C° 0 mm 2 mps 736 mmHg 82%
    21:00 +15°C° 0 mm 2 mps 736 mmHg 84%
    22:00 +14°C° 0 mm 2 mps 736 mmHg 86%
    23:00 +14°C° 0 mm 2 mps 736 mmHg 88%

    Day after tomorrow, 25 October, Thursday

    Time Temperature Precipitation Wind Pressure Humidity
    00:00 +14°C° 0.4 mm 2 mps 736 mmHg 87%
    01:00 +13°C° 0.4 mm 3 mps 737 mmHg 85%
    02:00 +13°C° 0.4 mm 4 mps 737 mmHg 83%
    03:00 +12°C° 0.4 mm 4 mps 737 mmHg 77%
    04:00 +10°C° 0.4 mm 5 mps 738 mmHg 71%
    05:00 +9°C° 0.4 mm 5 mps 738 mmHg 66%
    06:00 +9°C° 0 mm 5 mps 739 mmHg 63%
    07:00 +9°C° 0 mm 5 mps 740 mmHg 60%
    08:00 +9°C° 0 mm 5 mps 740 mmHg 57%
    09:00 +9°C° 0 mm 6 mps 741 mmHg 51%
    10:00 +10°C° 0 mm 6 mps 741 mmHg 46%
    11:00 +11°C° 0 mm 6 mps 742 mmHg 40%
    12:00 +11°C° 0 mm 6 mps 742 mmHg 38%
    13:00 +13°C° 0 mm 5 mps 742 mmHg 36%
    14:00 +13°C° 0 mm 5 mps 742 mmHg 35%
    15:00 +12°C° 0 mm 5 mps 742 mmHg 37%
    16:00 +12°C° 0 mm 4 mps 743 mmHg 38%
    17:00 +11°C° 0 mm 3 mps 743 mmHg 40%
    18:00 +10°C° 0 mm 3 mps 743 mmHg 43%
    19:00 +9°C° 0 mm 2 mps 744 mmHg 46%
    20:00 +8°C° 0 mm 2 mps 744 mmHg 48%
    21:00 +8°C° 0 mm 1 mps 745 mmHg 49%
    22:00 +8°C° 0 mm 1 mps 745 mmHg 49%
    23:00 +8°C° 0 mm 1 mps 745 mmHg 50%

    26 October, Friday

    Time Temperature Precipitation Wind Pressure Humidity
    00:00 +8°C° 0 mm 1 mps 745 mmHg 50%
    01:00 +7°C° 0 mm 1 mps 745 mmHg 50%
    02:00 +7°C° 0 mm 1 mps 745 mmHg 50%
    03:00 +7°C° 0 mm 1 mps 745 mmHg 49%
    04:00 +7°C° 0 mm 1 mps 745 mmHg 49%
    05:00 +7°C° 0 mm 1 mps 745 mmHg 49%
    06:00 +8°C° 0 mm 1 mps 746 mmHg 46%
    07:00 +9°C° 0 mm 1 mps 746 mmHg 44%
    08:00 +10°C° 0 mm 1 mps 746 mmHg 41%
    09:00 +12°C° 0 mm 1 mps 747 mmHg 36%
    10:00 +14°C° 0 mm 2 mps 747 mmHg 31%
    11:00 +17°C° 0 mm 2 mps 747 mmHg 26%
    12:00 +18°C° 0 mm 2 mps 746 mmHg 26%
    13:00 +18°C° 0 mm 2 mps 746 mmHg 26%
    14:00 +20°C° 0 mm 1 mps 746 mmHg 26%
    15:00 +19°C° 0 mm 1 mps 746 mmHg 30%
    16:00 +18°C° 0 mm 1 mps 746 mmHg 33%
    17:00 +16°C° 0 mm 1 mps 746 mmHg 36%
    18:00 +15°C° 0 mm 1 mps 746 mmHg 38%
    19:00 +14°C° 0 mm 1 mps 747 mmHg 39%
    20:00 +13°C° 0 mm 1 mps 747 mmHg 41%
    21:00 +13°C° 0 mm 1 mps 747 mmHg 41%
    22:00 +13°C° 0 mm 1 mps 747 mmHg 42%
    23:00 +13°C° 0 mm 1 mps 747 mmHg 42%

    27 October, Saturday

    Time Temperature Precipitation Wind Pressure Humidity
    00:00 +12°C° 0 mm 1 mps 747 mmHg 43%
    01:00 +12°C° 0 mm 1 mps 747 mmHg 43%
    02:00 +12°C° 0 mm 1 mps 747 mmHg 44%
    03:00 +12°C° 0 mm 1 mps 747 mmHg 44%
    04:00 +12°C° 0 mm 1 mps 747 mmHg 44%
    05:00 +11°C° 0 mm 1 mps 747 mmHg 44%
    06:00 +12°C° 0 mm 2 mps 747 mmHg 43%
    07:00 +13°C° 0 mm 2 mps 747 mmHg 41%
    08:00 +14°C° 0 mm 2 mps 747 mmHg 40%
    09:00 +17°C° 0 mm 2 mps 747 mmHg 34%
    10:00 +19°C° 0 mm 2 mps 747 mmHg 29%
    11:00 +21°C° 0 mm 3 mps 747 mmHg 24%
    12:00 +22°C° 0 mm 3 mps 747 mmHg 23%
    13:00 +24°C° 0 mm 3 mps 747 mmHg 22%
    14:00 +25°C° 0 mm 4 mps 746 mmHg 21%
    15:00 +24°C° 0 mm 3 mps 746 mmHg 25%
    16:00 +21°C° 0 mm 3 mps 746 mmHg 29%
    17:00 +20°C° 0 mm 2 mps 746 mmHg 33%
    18:00 +18°C° 0 mm 2 mps 746 mmHg 37%
    19:00 +17°C° 0 mm 2 mps 746 mmHg 41%
    20:00 +16°C° 0 mm 2 mps 746 mmHg 45%
    21:00 +15°C° 0 mm 2 mps 746 mmHg 48%
    22:00 +15°C° 0 mm 2 mps 747 mmHg 50%
    23:00 +15°C° 0 mm 2 mps 747 mmHg 52%

    28 October, Sunday

    Time Temperature Precipitation Wind Pressure Humidity
    00:00 +14°C° 0 mm 2 mps 746 mmHg 53%
    01:00 +14°C° 0 mm 2 mps 746 mmHg 53%
    02:00 +14°C° 0 mm 2 mps 746 mmHg 54%
    03:00 +14°C° 0 mm 2 mps 746 mmHg 54%
    04:00 +13°C° 0 mm 2 mps 746 mmHg 54%
    05:00 +13°C° 0 mm 2 mps 746 mmHg 54%
    06:00 +14°C° 0 mm 2 mps 746 mmHg 52%
    07:00 +15°C° 0 mm 2 mps 747 mmHg 50%
    08:00 +16°C° 0 mm 2 mps 747 mmHg 48%
    09:00 +18°C° 0 mm 2 mps 747 mmHg 43%
    10:00 +20°C° 0 mm 3 mps 746 mmHg 39%
    11:00 +22°C° 0 mm 3 mps 746 mmHg 34%
    12:00 +24°C° 0 mm 3 mps 746 mmHg 32%
    13:00 +25°C° 0 mm 3 mps 745 mmHg 30%
    14:00 +26°C° 0 mm 3 mps 745 mmHg 28%
    15:00 +24°C° 0 mm 3 mps 745 mmHg 33%
    16:00 +23°C° 0 mm 2 mps 745 mmHg 38%
    17:00 +20°C° 0 mm 2 mps 744 mmHg 42%
    18:00 +19°C° 0 mm 2 mps 744 mmHg 48%
    19:00 +19°C° 0 mm 1 mps 744 mmHg 54%
    20:00 +18°C° 0 mm 1 mps 744 mmHg 60%
    21:00 +16°C° 0 mm 1 mps 744 mmHg 63%
    22:00 +16°C° 0 mm 1 mps 744 mmHg 65%
    23:00 +15°C° 0 mm 1 mps 744 mmHg 68%

    29 October, Monday

    Time Temperature Precipitation Wind Pressure Humidity
    00:00 +15°C° 0 mm 1 mps 744 mmHg 69%
    01:00 +15°C° 0 mm 1 mps 744 mmHg 70%
    02:00 +14°C° 0 mm 1 mps 744 mmHg 72%
    03:00 +14°C° 0 mm 1 mps 743 mmHg 71%
    04:00 +14°C° 0 mm 2 mps 743 mmHg 71%
    05:00 +14°C° 0 mm 2 mps 743 mmHg 71%
    06:00 +14°C° 0 mm 2 mps 743 mmHg 67%
    07:00 +15°C° 0 mm 2 mps 743 mmHg 63%
    08:00 +16°C° 0 mm 2 mps 743 mmHg 59%
    09:00 +18°C° 0 mm 3 mps 743 mmHg 51%
    10:00 +21°C° 0 mm 3 mps 743 mmHg 42%
    11:00 +23°C° 0 mm 4 mps 743 mmHg 34%
    12:00 +25°C° 0 mm 5 mps 742 mmHg 33%
    13:00 +26°C° 0 mm 5 mps 742 mmHg 31%
    14:00 +26°C° 0 mm 5 mps 741 mmHg 29%
    15:00 +25°C° 0 mm 4 mps 741 mmHg 34%
    16:00 +23°C° 0 mm 4 mps 741 mmHg 39%
    17:00 +21°C° 0 mm 3 mps 741 mmHg 44%
    18:00 +21°C° 0 mm 3 mps 741 mmHg 48%
    19:00 +20°C° 0 mm 3 mps 741 mmHg 53%
    20:00 +19°C° 0 mm 2 mps 741 mmHg 57%
    21:00 +18°C° 0 mm 2 mps 741 mmHg 60%
    22:00 +18°C° 0 mm 2 mps 741 mmHg 62%
    23:00 +18°C° 0 mm 2 mps 741 mmHg 64%
    Show more